Time,TemperatureF,DewpointF,PressureIn,WindDirection,WindDirectionDegrees,WindSpeedMPH,WindSpeedGustMPH,Humidity,HourlyPrecipIn,Conditions,Clouds,dailyrainin,SoftwareType,DateUTC
2013-06-07 00:00:00,59.0,47.7,29.89,ENE,68,3.0,13.0,66,0.00,,SCT033,0.00,VWS V15.00,2013-06-07 04:00:00,
2013-06-07 00:01:00,71.0,41.2,30.03,ENE,68,3.0,3.0,34,0.00,,BKN210,0.00,VWS V14.01,2013-06-07 04:01:00,
2013-06-07 00:02:00,71.0,41.2,30.03,ENE,68,3.0,3.0,34,0.00,,BKN210,0.00,VWS V14.01,2013-06-07 04:02:00,
2013-06-07 00:04:00,71.0,41.2,30.03,ENE,68,3.0,3.0,34,0.00,,BKN210,0.00,VWS V14.01,2013-06-07 04:04:00,
2013-06-07 00:09:00,71.0,41.2,30.03,ENE,68,3.0,3.0,34,0.00,,BKN210,0.00,VWS V14.01,2013-06-07 04:09:00,
2013-06-07 00:14:00,71.0,41.2,30.03,ENE,68,3.0,3.0,34,0.00,,BKN210,0.00,VWS V14.01,2013-06-07 04:14:00,
2013-06-07 00:15:00,58.5,47.6,29.88,ENE,68,2.0,10.0,67,0.00,,SCT033,0.00,VWS V15.00,2013-06-07 04:15:00,
2013-06-07 00:19:00,71.0,41.2,30.03,ENE,68,3.0,3.0,34,0.00,,BKN210,0.00,VWS V14.01,2013-06-07 04:19:00,
2013-06-07 00:24:00,71.0,41.2,30.03,ENE,68,3.0,3.0,34,0.00,,BKN210,0.00,VWS V14.01,2013-06-07 04:24:00,
2013-06-07 00:29:00,71.0,41.2,30.03,ENE,68,3.0,3.0,34,0.00,,BKN210,0.00,VWS V14.01,2013-06-07 04:29:00,
2013-06-07 00:30:00,58.1,47.2,29.88,NE,45,1.0,10.0,67,0.00,,SCT033,0.00,VWS V15.00,2013-06-07 04:30:00,
2013-06-07 00:34:00,71.0,41.2,30.03,ENE,68,3.0,3.0,34,0.00,,BKN210,0.00,VWS V14.01,2013-06-07 04:34:00,
2013-06-07 00:39:00,71.0,41.2,30.03,ENE,68,3.0,3.0,34,0.00,,BKN210,0.00,VWS V14.01,2013-06-07 04:39:00,
2013-06-07 00:44:00,71.0,41.2,30.03,ENE,68,3.0,3.0,34,0.00,,BKN210,0.00,VWS V14.01,2013-06-07 04:44:00,
2013-06-07 00:45:00,57.7,47.2,29.88,ENE,68,1.0,7.0,68,0.00,,SCT033,0.00,VWS V15.00,2013-06-07 04:45:00,
2013-06-07 00:49:00,71.0,41.2,30.03,ENE,68,3.0,3.0,34,0.00,,BKN210,0.00,VWS V14.01,2013-06-07 04:49:00,
2013-06-07 00:55:00,71.0,41.2,30.03,ENE,68,3.0,3.0,34,0.00,,BKN210,0.00,VWS V14.01,2013-06-07 04:55:00,
2013-06-07 01:00:00,71.0,41.2,30.03,ENE,68,3.0,3.0,34,0.00,,BKN210,0.00,VWS V14.01,2013-06-07 05:00:00,
2013-06-07 01:05:00,71.0,41.2,30.03,ENE,68,3.0,3.0,34,0.00,,BKN210,0.00,VWS V14.01,2013-06-07 05:05:00,
2013-06-07 01:10:00,71.0,41.2,30.03,ENE,68,3.0,3.0,34,0.00,,BKN210,0.00,VWS V14.01,2013-06-07 05:10:00,
2013-06-07 01:15:00,71.0,41.2,30.03,ENE,68,3.0,3.0,34,0.00,,BKN210,0.00,VWS V14.01,2013-06-07 05:15:00,
2013-06-07 01:20:00,71.0,41.2,30.03,ENE,68,3.0,3.0,34,0.00,,BKN210,0.00,VWS V14.01,2013-06-07 05:20:00,
2013-06-07 01:25:00,71.0,41.2,30.03,ENE,68,3.0,3.0,34,0.00,,BKN210,0.00,VWS V14.01,2013-06-07 05:25:00,
2013-06-07 01:30:00,71.0,41.2,30.03,ENE,68,3.0,3.0,34,0.00,,BKN210,0.00,VWS V14.01,2013-06-07 05:30:00,
2013-06-07 01:35:00,71.0,41.2,30.03,ENE,68,3.0,3.0,34,0.00,,BKN210,0.00,VWS V14.01,2013-06-07 05:35:00,
2013-06-07 01:40:00,71.0,41.2,30.03,ENE,68,3.0,3.0,34,0.00,,BKN210,0.00,VWS V14.01,2013-06-07 05:40:00,
2013-06-07 01:45:00,71.0,41.2,30.03,ENE,68,3.0,3.0,34,0.00,,BKN210,0.00,VWS V14.01,2013-06-07 05:45:00,
2013-06-07 01:50:00,71.0,41.2,30.03,ENE,68,3.0,3.0,34,0.00,,BKN210,0.00,VWS V14.01,2013-06-07 05:50:00,
2013-06-07 01:56:00,71.0,41.2,30.03,ENE,68,3.0,3.0,34,0.00,,BKN210,0.00,VWS V14.01,2013-06-07 05:56:00,
2013-06-07 02:00:00,54.5,46.0,29.87,ENE,68,0.0,0.0,73,0.00,,SCT033,0.00,VWS V15.00,2013-06-07 06:00:00,
2013-06-07 02:01:00,71.0,41.2,30.03,ENE,68,3.0,3.0,34,0.00,,BKN210,0.00,VWS V14.01,2013-06-07 06:01:00,
2013-06-07 02:06:00,71.0,41.2,30.03,ENE,68,3.0,3.0,34,0.00,,BKN210,0.00,VWS V14.01,2013-06-07 06:06:00,
2013-06-07 02:11:00,71.0,41.2,30.03,ENE,68,3.0,3.0,34,0.00,,BKN210,0.00,VWS V14.01,2013-06-07 06:11:00,
2013-06-07 02:15:00,53.6,45.9,29.88,ENE,68,0.0,0.0,75,0.00,,SCT033,0.00,VWS V15.00,2013-06-07 06:15:00,
2013-06-07 02:16:00,71.0,41.2,30.03,ENE,68,3.0,3.0,34,0.00,,BKN210,0.00,VWS V14.01,2013-06-07 06:16:00,
2013-06-07 02:21:00,71.0,41.2,30.03,ENE,68,3.0,3.0,34,0.00,,BKN210,0.00,VWS V14.01,2013-06-07 06:21:00,
2013-06-07 02:26:00,71.0,41.2,30.03,ENE,68,3.0,3.0,34,0.00,,BKN210,0.00,VWS V14.01,2013-06-07 06:26:00,
2013-06-07 02:30:00,52.9,45.9,29.87,ENE,68,0.0,0.0,77,0.00,,SCT033,0.00,VWS V15.00,2013-06-07 06:30:00,
2013-06-07 02:31:00,71.0,41.2,30.03,ENE,68,3.0,3.0,34,0.00,,BKN210,0.00,VWS V14.01,2013-06-07 06:31:00,
2013-06-07 02:37:00,71.0,41.2,30.03,ENE,68,3.0,3.0,34,0.00,,BKN210,0.00,VWS V14.01,2013-06-07 06:37:00,
2013-06-07 02:42:00,71.0,41.2,30.03,ENE,68,3.0,3.0,34,0.00,,BKN210,0.00,VWS V14.01,2013-06-07 06:42:00,
2013-06-07 02:45:00,52.5,46.2,29.88,ENE,68,0.0,0.0,79,0.00,,SCT033,0.00,VWS V15.00,2013-06-07 06:45:00,
2013-06-07 02:47:00,71.0,41.2,30.03,ENE,68,3.0,3.0,34,0.00,,BKN210,0.00,VWS V14.01,2013-06-07 06:47:00,
2013-06-07 02:52:00,71.0,41.2,30.03,ENE,68,3.0,3.0,34,0.00,,BKN210,0.00,VWS V14.01,2013-06-07 06:52:00,
2013-06-07 02:57:00,71.0,41.2,30.03,ENE,68,3.0,3.0,34,0.00,,BKN210,0.00,VWS V14.01,2013-06-07 06:57:00,
2013-06-07 03:00:00,52.3,46.3,29.88,ENE,68,0.0,1.0,80,0.00,,SCT033,0.00,VWS V15.00,2013-06-07 07:00:00,
2013-06-07 03:02:00,71.0,41.2,30.03,ENE,68,3.0,3.0,34,0.00,,BKN210,0.00,VWS V14.01,2013-06-07 07:02:00,
2013-06-07 03:07:00,71.0,41.2,30.03,ENE,68,3.0,3.0,34,0.00,,BKN210,0.00,VWS V14.01,2013-06-07 07:07:00,
2013-06-07 03:13:00,71.0,41.2,30.03,ENE,68,3.0,3.0,34,0.00,,BKN210,0.00,VWS V14.01,2013-06-07 07:13:00,
2013-06-07 03:15:00,52.1,46.5,29.88,ENE,68,0.0,1.0,81,0.00,,SCT033,0.00,VWS V15.00,2013-06-07 07:15:00,
2013-06-07 03:18:00,71.0,41.2,30.03,ENE,68,3.0,3.0,34,0.00,,BKN210,0.00,VWS V14.01,2013-06-07 07:18:00,
2013-06-07 03:23:00,71.0,41.2,30.03,ENE,68,3.0,3.0,34,0.00,,BKN210,0.00,VWS V14.01,2013-06-07 07:23:00,
2013-06-07 03:28:00,71.0,41.2,30.03,ENE,68,3.0,3.0,34,0.00,,BKN210,0.00,VWS V14.01,2013-06-07 07:28:00,
2013-06-07 03:30:00,52.0,46.7,29.87,ENE,68,0.0,0.0,82,0.00,,SCT033,0.00,VWS V15.00,2013-06-07 07:30:00,
2013-06-07 03:33:00,71.0,41.2,30.03,ENE,68,3.0,3.0,34,0.00,,BKN210,0.00,VWS V14.01,2013-06-07 07:33:00,
2013-06-07 03:38:00,71.0,41.2,30.03,ENE,68,3.0,3.0,34,0.00,,BKN210,0.00,VWS V14.01,2013-06-07 07:38:00,
2013-06-07 03:43:00,71.0,41.2,30.03,ENE,68,3.0,3.0,34,0.00,,BKN210,0.00,VWS V14.01,2013-06-07 07:43:00,
2013-06-07 03:45:00,51.9,46.9,29.87,ENE,68,0.0,3.0,83,0.00,,SCT033,0.00,VWS V15.00,2013-06-07 07:45:00,
2013-06-07 03:48:00,71.0,41.2,30.03,ENE,68,3.0,3.0,34,0.00,,BKN210,0.00,VWS V14.01,2013-06-07 07:48:00,
2013-06-07 03:53:00,71.0,41.2,30.03,ENE,68,3.0,3.0,34,0.00,,BKN210,0.00,VWS V14.01,2013-06-07 07:53:00,
2013-06-07 03:59:00,71.0,41.2,30.03,ENE,68,3.0,3.0,34,0.00,,BKN210,0.00,VWS V14.01,2013-06-07 07:59:00,
2013-06-07 04:00:00,51.9,46.9,29.87,ENE,68,1.0,5.0,83,0.00,,SCT033,0.00,VWS V15.00,2013-06-07 08:00:00,
2013-06-07 04:04:00,71.0,41.2,30.03,ENE,68,3.0,3.0,34,0.00,,BKN210,0.00,VWS V14.01,2013-06-07 08:04:00,
2013-06-07 04:09:00,71.0,41.2,30.03,ENE,68,3.0,3.0,34,0.00,,BKN210,0.00,VWS V14.01,2013-06-07 08:09:00,
2013-06-07 04:14:00,71.0,41.2,30.03,ENE,68,3.0,3.0,34,0.00,,BKN210,0.00,VWS V14.01,2013-06-07 08:14:00,
2013-06-07 04:15:00,52.0,47.3,29.86,ENE,68,1.0,7.0,84,0.00,,SCT033,0.00,VWS V15.00,2013-06-07 08:15:00,
2013-06-07 04:19:00,71.0,41.2,30.03,ENE,68,3.0,3.0,34,0.00,,BKN210,0.00,VWS V14.01,2013-06-07 08:19:00,
2013-06-07 04:25:00,71.0,41.2,30.03,ENE,68,3.0,3.0,34,0.00,,BKN210,0.00,VWS V14.01,2013-06-07 08:25:00,
2013-06-07 04:30:00,71.0,41.2,30.03,ENE,68,3.0,3.0,34,0.00,,BKN210,0.00,VWS V14.01,2013-06-07 08:30:00,
2013-06-07 04:35:00,71.0,41.2,30.03,ENE,68,3.0,3.0,34,0.00,,BKN210,0.00,VWS V14.01,2013-06-07 08:35:00,
2013-06-07 04:40:00,71.0,41.2,30.03,ENE,68,3.0,3.0,34,0.00,,BKN210,0.00,VWS V14.01,2013-06-07 08:40:00,
2013-06-07 04:45:00,71.0,41.2,30.03,ENE,68,3.0,3.0,34,0.00,,BKN210,0.00,VWS V14.01,2013-06-07 08:45:00,
2013-06-07 04:50:00,71.0,41.2,30.03,ENE,68,3.0,3.0,34,0.00,,BKN210,0.00,VWS V14.01,2013-06-07 08:50:00,
2013-06-07 04:55:00,71.0,41.2,30.03,ENE,68,3.0,3.0,34,0.00,,BKN210,0.00,VWS V14.01,2013-06-07 08:55:00,
2013-06-07 05:00:00,71.0,41.2,30.03,ENE,68,3.0,3.0,34,0.00,,BKN210,0.00,VWS V14.01,2013-06-07 09:00:00,
2013-06-07 05:05:00,71.0,41.2,30.03,ENE,68,3.0,3.0,34,0.00,,BKN210,0.00,VWS V14.01,2013-06-07 09:05:00,
2013-06-07 05:11:00,71.0,41.2,30.03,ENE,68,3.0,3.0,34,0.00,,BKN210,0.00,VWS V14.01,2013-06-07 09:11:00,
2013-06-07 05:15:00,52.0,47.6,29.86,NNE,22,2.0,8.0,85,0.00,,SCT033,0.00,VWS V15.00,2013-06-07 09:15:00,
2013-06-07 05:16:00,71.0,41.2,30.03,ENE,68,3.0,3.0,34,0.00,,BKN210,0.00,VWS V14.01,2013-06-07 09:16:00,
2013-06-07 05:21:00,71.0,41.2,30.03,ENE,68,3.0,3.0,34,0.00,,BKN210,0.00,VWS V14.01,2013-06-07 09:21:00,
2013-06-07 05:27:00,71.0,41.2,30.03,ENE,68,3.0,3.0,34,0.00,,BKN210,0.00,VWS V14.01,2013-06-07 09:27:00,
2013-06-07 05:30:00,51.9,47.5,29.86,NNE,22,2.0,10.0,85,0.00,,SCT033,0.00,VWS V15.00,2013-06-07 09:30:00,
2013-06-07 05:32:00,71.0,41.2,30.03,ENE,68,3.0,3.0,34,0.00,,BKN210,0.00,VWS V14.01,2013-06-07 09:32:00,
2013-06-07 05:37:00,71.0,41.2,30.03,ENE,68,3.0,3.0,34,0.00,,BKN210,0.00,VWS V14.01,2013-06-07 09:37:00,
2013-06-07 05:42:00,71.0,41.2,30.03,ENE,68,3.0,3.0,34,0.00,,BKN210,0.00,VWS V14.01,2013-06-07 09:42:00,
2013-06-07 05:45:00,51.9,47.5,29.87,NE,45,3.0,7.0,85,0.00,,SCT033,0.00,VWS V15.00,2013-06-07 09:45:00,
2013-06-07 05:47:00,71.0,41.2,30.03,ENE,68,3.0,3.0,34,0.00,,BKN210,0.00,VWS V14.01,2013-06-07 09:47:00,
2013-06-07 05:52:00,71.0,41.2,30.03,ENE,68,3.0,3.0,34,0.00,,BKN210,0.00,VWS V14.01,2013-06-07 09:52:00,
2013-06-07 05:57:00,71.0,41.2,30.03,ENE,68,3.0,3.0,34,0.00,,BKN210,0.00,VWS V14.01,2013-06-07 09:57:00,
2013-06-07 06:00:00,51.7,47.0,29.87,NNE,22,1.0,7.0,84,0.00,,SCT033,0.00,VWS V15.00,2013-06-07 10:00:00,
2013-06-07 06:02:00,71.0,41.2,30.03,ENE,68,3.0,3.0,34,0.00,,BKN210,0.00,VWS V14.01,2013-06-07 10:02:00,
2013-06-07 06:07:00,71.0,41.2,30.03,ENE,68,3.0,3.0,34,0.00,,BKN210,0.00,VWS V14.01,2013-06-07 10:07:00,
2013-06-07 06:12:00,71.0,41.2,30.03,ENE,68,3.0,3.0,34,0.00,,BKN210,0.00,VWS V14.01,2013-06-07 10:12:00,
2013-06-07 06:15:00,51.5,47.2,29.87,NNE,22,1.0,6.0,85,0.00,,SCT033,0.00,VWS V15.00,2013-06-07 10:15:00,
2013-06-07 06:17:00,71.0,41.2,30.03,ENE,68,3.0,3.0,34,0.00,,BKN210,0.00,VWS V14.01,2013-06-07 10:17:00,
2013-06-07 06:22:00,71.0,41.2,30.03,ENE,68,3.0,3.0,34,0.00,,BKN210,0.00,VWS V14.01,2013-06-07 10:22:00,
2013-06-07 06:27:00,71.0,41.2,30.03,ENE,68,3.0,3.0,34,0.00,,BKN210,0.00,VWS V14.01,2013-06-07 10:27:00,
2013-06-07 06:30:00,51.3,47.0,29.88,NE,45,1.0,7.0,85,0.00,,SCT033,0.00,VWS V15.00,2013-06-07 10:30:00,
2013-06-07 06:33:00,71.0,41.2,30.03,ENE,68,3.0,3.0,34,0.00,,BKN210,0.00,VWS V14.01,2013-06-07 10:33:00,
2013-06-07 06:38:00,71.0,41.2,30.03,ENE,68,3.0,3.0,34,0.00,,BKN210,0.00,VWS V14.01,2013-06-07 10:38:00,
2013-06-07 06:43:00,71.0,41.2,30.03,ENE,68,3.0,3.0,34,0.00,,BKN210,0.00,VWS V14.01,2013-06-07 10:43:00,
2013-06-07 06:45:00,51.2,46.8,29.89,NE,45,1.0,5.0,85,0.00,,SCT033,0.00,VWS V15.00,2013-06-07 10:45:00,
2013-06-07 06:48:00,71.0,41.2,30.03,ENE,68,3.0,3.0,34,0.00,,BKN210,0.00,VWS V14.01,2013-06-07 10:48:00,
2013-06-07 06:53:00,71.0,41.2,30.03,ENE,68,3.0,3.0,34,0.00,,BKN210,0.00,VWS V14.01,2013-06-07 10:53:00,
2013-06-07 06:58:00,71.0,41.2,30.03,ENE,68,3.0,3.0,34,0.00,,BKN210,0.00,VWS V14.01,2013-06-07 10:58:00,
2013-06-07 07:00:00,51.2,47.2,29.89,NE,45,0.0,3.0,86,0.00,,SCT033,0.00,VWS V15.00,2013-06-07 11:00:00,
2013-06-07 07:03:00,71.0,41.2,30.03,ENE,68,3.0,3.0,34,0.00,,BKN210,0.00,VWS V14.01,2013-06-07 11:03:00,
2013-06-07 07:08:00,71.0,41.2,30.03,ENE,68,3.0,3.0,34,0.00,,BKN210,0.00,VWS V14.01,2013-06-07 11:08:00,
2013-06-07 07:13:00,71.0,41.2,30.03,ENE,68,3.0,3.0,34,0.00,,BKN210,0.00,VWS V14.01,2013-06-07 11:13:00,
2013-06-07 07:15:00,51.5,47.8,29.89,NE,45,0.0,3.0,87,0.00,,SCT033,0.00,VWS V15.00,2013-06-07 11:15:00,
2013-06-07 07:18:00,71.0,41.2,30.03,ENE,68,3.0,3.0,34,0.00,,BKN210,0.00,VWS V14.01,2013-06-07 11:18:00,
2013-06-07 07:23:00,71.0,41.2,30.03,ENE,68,3.0,3.0,34,0.00,,BKN210,0.00,VWS V14.01,2013-06-07 11:23:00,
2013-06-07 07:28:00,71.0,41.2,30.03,ENE,68,3.0,3.0,34,0.00,,BKN210,0.00,VWS V14.01,2013-06-07 11:28:00,
2013-06-07 07:30:00,52.0,48.3,29.90,NE,45,1.0,8.0,87,0.00,,SCT033,0.00,VWS V15.00,2013-06-07 11:30:00,
2013-06-07 07:34:00,71.0,41.2,30.03,ENE,68,3.0,3.0,34,0.00,,BKN210,0.00,VWS V14.01,2013-06-07 11:34:00,
2013-06-07 07:39:00,71.0,41.2,30.03,ENE,68,3.0,3.0,34,0.00,,BKN210,0.00,VWS V14.01,2013-06-07 11:39:00,
2013-06-07 07:44:00,71.0,41.2,30.03,ENE,68,3.0,3.0,34,0.00,,BKN210,0.00,VWS V14.01,2013-06-07 11:44:00,
2013-06-07 07:45:00,52.8,49.0,29.90,ENE,68,0.0,7.0,87,0.00,,SCT033,0.00,VWS V15.00,2013-06-07 11:45:00,
2013-06-07 07:49:00,71.0,41.2,30.03,ENE,68,3.0,3.0,34,0.00,,BKN210,0.00,VWS V14.01,2013-06-07 11:49:00,
2013-06-07 07:54:00,71.0,41.2,30.03,ENE,68,3.0,3.0,34,0.00,,BKN210,0.00,VWS V14.01,2013-06-07 11:54:00,
2013-06-07 07:59:00,71.0,41.2,30.03,ENE,68,3.0,3.0,34,0.00,,BKN210,0.00,VWS V14.01,2013-06-07 11:59:00,
2013-06-07 08:00:00,54.3,50.5,29.90,NE,45,1.0,9.0,87,0.00,,SCT033,0.00,VWS V15.00,2013-06-07 12:00:00,
2013-06-07 08:04:00,71.0,41.2,30.03,ENE,68,3.0,3.0,34,0.00,,BKN210,0.00,VWS V14.01,2013-06-07 12:04:00,
2013-06-07 08:10:00,71.0,41.2,30.03,ENE,68,3.0,3.0,34,0.00,,BKN210,0.00,VWS V14.01,2013-06-07 12:10:00,
2013-06-07 08:15:00,71.0,41.2,30.03,ENE,68,3.0,3.0,34,0.00,,BKN210,0.00,VWS V14.01,2013-06-07 12:15:00,
2013-06-07 08:20:00,71.0,41.2,30.03,ENE,68,3.0,3.0,34,0.00,,BKN210,0.00,VWS V14.01,2013-06-07 12:20:00,
2013-06-07 08:25:00,71.0,41.2,30.03,ENE,68,3.0,3.0,34,0.00,,BKN210,0.00,VWS V14.01,2013-06-07 12:25:00,
2013-06-07 08:30:00,71.0,41.2,30.03,ENE,68,3.0,3.0,34,0.00,,BKN210,0.00,VWS V14.01,2013-06-07 12:30:00,
2013-06-07 08:35:00,71.0,41.2,30.03,ENE,68,3.0,3.0,34,0.00,,BKN210,0.00,VWS V14.01,2013-06-07 12:35:00,
2013-06-07 08:40:00,71.0,41.2,30.03,ENE,68,3.0,3.0,34,0.00,,BKN210,0.00,VWS V14.01,2013-06-07 12:40:00,
2013-06-07 08:45:00,71.0,41.2,30.03,ENE,68,3.0,3.0,34,0.00,,BKN210,0.00,VWS V14.01,2013-06-07 12:45:00,
2013-06-07 08:50:00,71.0,41.2,30.03,ENE,68,3.0,3.0,34,0.00,,BKN210,0.00,VWS V14.01,2013-06-07 12:50:00,
2013-06-07 08:55:00,71.0,41.2,30.03,ENE,68,3.0,3.0,34,0.00,,BKN210,0.00,VWS V14.01,2013-06-07 12:55:00,
2013-06-07 09:00:00,71.0,41.2,30.03,ENE,68,3.0,3.0,34,0.00,,BKN210,0.00,VWS V14.01,2013-06-07 13:00:00,
2013-06-07 09:06:00,71.0,41.2,30.03,ENE,68,3.0,3.0,34,0.00,,BKN210,0.00,VWS V14.01,2013-06-07 13:06:00,
2013-06-07 09:11:00,71.0,41.2,30.03,ENE,68,3.0,3.0,34,0.00,,BKN210,0.00,VWS V14.01,2013-06-07 13:11:00,
2013-06-07 09:15:00,60.5,51.1,29.90,ENE,68,2.0,10.0,71,0.00,,SCT033,0.00,VWS V15.00,2013-06-07 13:15:00,
2013-06-07 09:16:00,71.0,41.2,30.03,ENE,68,3.0,3.0,34,0.00,,BKN210,0.00,VWS V14.01,2013-06-07 13:16:00,
2013-06-07 09:21:00,71.0,41.2,30.03,ENE,68,3.0,3.0,34,0.00,,BKN210,0.00,VWS V14.01,2013-06-07 13:21:00,
2013-06-07 09:26:00,71.0,41.2,30.03,ENE,68,3.0,3.0,34,0.00,,BKN210,0.00,VWS V14.01,2013-06-07 13:26:00,
2013-06-07 09:30:00,61.6,51.0,29.90,NE,45,3.0,10.0,68,0.00,,SCT033,0.00,VWS V15.00,2013-06-07 13:30:00,
2013-06-07 09:31:00,71.0,41.2,30.03,ENE,68,3.0,3.0,34,0.00,,BKN210,0.00,VWS V14.01,2013-06-07 13:31:00,
2013-06-07 09:36:00,71.0,41.2,30.03,ENE,68,3.0,3.0,34,0.00,,BKN210,0.00,VWS V14.01,2013-06-07 13:36:00,
2013-06-07 09:41:00,71.0,41.2,30.03,ENE,68,3.0,3.0,34,0.00,,BKN210,0.00,VWS V14.01,2013-06-07 13:41:00,
2013-06-07 09:45:00,62.4,51.7,29.90,ENE,68,3.0,11.0,68,0.00,,SCT033,0.00,VWS V15.00,2013-06-07 13:45:00,
2013-06-07 09:46:00,71.0,41.2,30.03,ENE,68,3.0,3.0,34,0.00,,BKN210,0.00,VWS V14.01,2013-06-07 13:46:00,
2013-06-07 09:52:00,71.0,41.2,30.03,ENE,68,3.0,3.0,34,0.00,,BKN210,0.00,VWS V14.01,2013-06-07 13:52:00,
2013-06-07 09:57:00,71.0,41.2,30.03,ENE,68,3.0,3.0,34,0.00,,BKN210,0.00,VWS V14.01,2013-06-07 13:57:00,
2013-06-07 10:00:00,63.8,51.8,29.90,ENE,68,2.0,13.0,65,0.00,,SCT033,0.00,VWS V15.00,2013-06-07 14:00:00,
2013-06-07 10:02:00,71.0,41.2,30.03,ENE,68,3.0,3.0,34,0.00,,BKN210,0.00,VWS V14.01,2013-06-07 14:02:00,
2013-06-07 10:07:00,71.0,41.2,30.03,ENE,68,3.0,3.0,34,0.00,,BKN210,0.00,VWS V14.01,2013-06-07 14:07:00,
2013-06-07 10:12:00,71.0,41.2,30.03,ENE,68,3.0,3.0,34,0.00,,BKN210,0.00,VWS V14.01,2013-06-07 14:12:00,
2013-06-07 10:15:00,64.4,51.1,29.90,NE,45,4.0,9.0,62,0.00,,SCT033,0.00,VWS V15.00,2013-06-07 14:15:00,
2013-06-07 10:18:00,71.0,41.2,30.03,ENE,68,3.0,3.0,34,0.00,,BKN210,0.00,VWS V14.01,2013-06-07 14:18:00,
2013-06-07 10:23:00,71.0,41.2,30.03,ENE,68,3.0,3.0,34,0.00,,BKN210,0.00,VWS V14.01,2013-06-07 14:23:00,
2013-06-07 10:28:00,71.0,41.2,30.03,ENE,68,3.0,3.0,34,0.00,,BKN210,0.00,VWS V14.01,2013-06-07 14:28:00,
2013-06-07 10:30:00,65.5,53.0,29.90,NNE,22,4.0,13.0,64,0.00,,SCT033,0.00,VWS V15.00,2013-06-07 14:30:00,
2013-06-07 10:33:00,71.0,41.2,30.03,ENE,68,3.0,3.0,34,0.00,,BKN210,0.00,VWS V14.01,2013-06-07 14:33:00,
2013-06-07 10:38:00,71.0,41.2,30.03,ENE,68,3.0,3.0,34,0.00,,BKN210,0.00,VWS V14.01,2013-06-07 14:38:00,
2013-06-07 10:43:00,71.0,41.2,30.03,ENE,68,3.0,3.0,34,0.00,,BKN210,0.00,VWS V14.01,2013-06-07 14:43:00,
2013-06-07 10:45:00,65.8,51.1,29.89,North,0,5.0,15.0,59,0.00,,SCT033,0.00,VWS V15.00,2013-06-07 14:45:00,
2013-06-07 10:48:00,71.0,41.2,30.03,ENE,68,3.0,3.0,34,0.00,,BKN210,0.00,VWS V14.01,2013-06-07 14:48:00,
2013-06-07 10:53:00,71.0,41.2,30.03,ENE,68,3.0,3.0,34,0.00,,BKN210,0.00,VWS V14.01,2013-06-07 14:53:00,
2013-06-07 10:58:00,71.0,41.2,30.03,ENE,68,3.0,3.0,34,0.00,,BKN210,0.00,VWS V14.01,2013-06-07 14:58:00,
2013-06-07 11:00:00,66.5,50.8,29.89,NE,45,5.0,12.0,57,0.00,,SCT033,0.00,VWS V15.00,2013-06-07 15:00:00,
2013-06-07 11:03:00,71.0,41.2,30.03,ENE,68,3.0,3.0,34,0.00,,BKN210,0.00,VWS V14.01,2013-06-07 15:03:00,
2013-06-07 11:08:00,71.0,41.2,30.03,ENE,68,3.0,3.0,34,0.00,,BKN210,0.00,VWS V14.01,2013-06-07 15:08:00,
2013-06-07 11:13:00,71.0,41.2,30.03,ENE,68,3.0,3.0,34,0.00,,BKN210,0.00,VWS V14.01,2013-06-07 15:13:00,
2013-06-07 11:15:00,67.5,51.3,29.89,NE,45,4.0,9.0,56,0.00,,SCT033,0.00,VWS V15.00,2013-06-07 15:15:00,
2013-06-07 11:18:00,71.0,41.2,30.03,ENE,68,3.0,3.0,34,0.00,,BKN210,0.00,VWS V14.01,2013-06-07 15:18:00,
2013-06-07 11:24:00,71.0,41.2,30.03,ENE,68,3.0,3.0,34,0.00,,BKN210,0.00,VWS V14.01,2013-06-07 15:24:00,
2013-06-07 11:29:00,71.0,41.2,30.03,ENE,68,3.0,3.0,34,0.00,,BKN210,0.00,VWS V14.01,2013-06-07 15:29:00,
2013-06-07 11:30:00,67.7,47.9,29.89,NNE,22,6.0,13.0,49,0.00,,SCT033,0.00,VWS V15.00,2013-06-07 15:30:00,
2013-06-07 11:34:00,71.0,41.2,30.03,ENE,68,3.0,3.0,34,0.00,,BKN210,0.00,VWS V14.01,2013-06-07 15:34:00,
2013-06-07 11:39:00,71.0,41.2,30.03,ENE,68,3.0,3.0,34,0.00,,BKN210,0.00,VWS V14.01,2013-06-07 15:39:00,
2013-06-07 11:44:00,71.0,41.2,30.03,ENE,68,3.0,3.0,34,0.00,,BKN210,0.00,VWS V14.01,2013-06-07 15:44:00,
2013-06-07 11:45:00,67.9,49.1,29.89,NE,45,6.0,15.0,51,0.00,,SCT033,0.00,VWS V15.00,2013-06-07 15:45:00,
2013-06-07 11:49:00,71.0,41.2,30.03,ENE,68,3.0,3.0,34,0.00,,BKN210,0.00,VWS V14.01,2013-06-07 15:49:00,
2013-06-07 11:54:00,71.0,41.2,30.03,ENE,68,3.0,3.0,34,0.00,,BKN210,0.00,VWS V14.01,2013-06-07 15:54:00,
2013-06-07 11:59:00,71.0,41.2,30.03,ENE,68,3.0,3.0,34,0.00,,BKN210,0.00,VWS V14.01,2013-06-07 15:59:00,
2013-06-07 12:00:00,69.0,49.6,29.89,NE,45,3.0,12.0,50,0.00,,SCT033,0.00,VWS V15.00,2013-06-07 16:00:00,
2013-06-07 12:04:00,71.0,41.2,30.03,ENE,68,3.0,3.0,34,0.00,,BKN210,0.00,VWS V14.01,2013-06-07 16:04:00,
2013-06-07 12:09:00,71.0,41.2,30.03,ENE,68,3.0,3.0,34,0.00,,BKN210,0.00,VWS V14.01,2013-06-07 16:09:00,
2013-06-07 12:15:00,71.0,41.2,30.03,ENE,68,3.0,3.0,34,0.00,,BKN210,0.00,VWS V14.01,2013-06-07 16:15:00,
2013-06-07 12:20:00,71.0,41.2,30.03,ENE,68,3.0,3.0,34,0.00,,BKN210,0.00,VWS V14.01,2013-06-07 16:20:00,
2013-06-07 12:25:00,71.0,41.2,30.03,ENE,68,3.0,3.0,34,0.00,,BKN210,0.00,VWS V14.01,2013-06-07 16:25:00,
2013-06-07 12:30:00,71.0,41.2,30.03,ENE,68,3.0,3.0,34,0.00,,BKN210,0.00,VWS V14.01,2013-06-07 16:30:00,
2013-06-07 12:35:00,71.0,41.2,30.03,ENE,68,3.0,3.0,34,0.00,,BKN210,0.00,VWS V14.01,2013-06-07 16:35:00,
2013-06-07 12:40:00,71.0,41.2,30.03,ENE,68,3.0,3.0,34,0.00,,BKN210,0.00,VWS V14.01,2013-06-07 16:40:00,
2013-06-07 12:45:00,71.0,41.2,30.03,ENE,68,3.0,3.0,34,0.00,,BKN210,0.00,VWS V14.01,2013-06-07 16:45:00,
2013-06-07 12:50:00,71.0,41.2,30.03,ENE,68,3.0,3.0,34,0.00,,BKN210,0.00,VWS V14.01,2013-06-07 16:50:00,
2013-06-07 12:56:00,71.0,41.2,30.03,ENE,68,3.0,3.0,34,0.00,,BKN210,0.00,VWS V14.01,2013-06-07 16:56:00,
2013-06-07 13:00:00,70.6,48.8,29.87,North,0,3.0,18.0,46,0.00,,SCT033,0.00,VWS V15.00,2013-06-07 17:00:00,
2013-06-07 13:01:00,71.0,41.2,30.03,ENE,68,3.0,3.0,34,0.00,,BKN210,0.00,VWS V14.01,2013-06-07 17:01:00,
2013-06-07 13:06:00,71.0,41.2,30.03,ENE,68,3.0,3.0,34,0.00,,BKN210,0.00,VWS V14.01,2013-06-07 17:06:00,
2013-06-07 13:11:00,71.0,41.2,30.03,ENE,68,3.0,3.0,34,0.00,,BKN210,0.00,VWS V14.01,2013-06-07 17:11:00,
2013-06-07 13:15:00,70.7,48.3,29.87,NNE,22,3.0,17.0,45,0.00,,SCT033,0.00,VWS V15.00,2013-06-07 17:15:00,
2013-06-07 13:16:00,71.0,41.2,30.03,ENE,68,3.0,3.0,34,0.00,,BKN210,0.00,VWS V14.01,2013-06-07 17:16:00,
2013-06-07 13:21:00,71.0,41.2,30.03,ENE,68,3.0,3.0,34,0.00,,BKN210,0.00,VWS V14.01,2013-06-07 17:21:00,
2013-06-07 13:26:00,71.0,41.2,30.03,ENE,68,3.0,3.0,34,0.00,,BKN210,0.00,VWS V14.01,2013-06-07 17:26:00,
2013-06-07 13:30:00,71.4,49.6,29.86,NE,45,2.0,18.0,46,0.00,,SCT033,0.00,VWS V15.00,2013-06-07 17:30:00,
2013-06-07 13:31:00,71.0,41.2,30.03,ENE,68,3.0,3.0,34,0.00,,BKN210,0.00,VWS V14.01,2013-06-07 17:31:00,
2013-06-07 13:37:00,71.0,41.2,30.03,ENE,68,3.0,3.0,34,0.00,,BKN210,0.00,VWS V14.01,2013-06-07 17:37:00,
2013-06-07 13:42:00,71.0,41.2,30.03,ENE,68,3.0,3.0,34,0.00,,BKN210,0.00,VWS V14.01,2013-06-07 17:42:00,
2013-06-07 13:45:00,72.2,49.1,29.86,North,0,2.0,16.0,44,0.00,,SCT033,0.00,VWS V15.00,2013-06-07 17:45:00,
2013-06-07 13:47:00,71.0,41.2,30.03,ENE,68,3.0,3.0,34,0.00,,BKN210,0.00,VWS V14.01,2013-06-07 17:47:00,
2013-06-07 13:52:00,71.0,41.2,30.03,ENE,68,3.0,3.0,34,0.00,,BKN210,0.00,VWS V14.01,2013-06-07 17:52:00,
2013-06-07 13:58:00,71.0,41.2,30.03,ENE,68,3.0,3.0,34,0.00,,BKN210,0.00,VWS V14.01,2013-06-07 17:58:00,
2013-06-07 14:00:00,72.1,49.6,29.86,NE,45,2.0,14.0,45,0.00,,SCT033,0.00,VWS V15.00,2013-06-07 18:00:00,
2013-06-07 14:04:00,71.0,41.2,30.03,ENE,68,3.0,3.0,34,0.00,,BKN210,0.00,VWS V14.01,2013-06-07 18:04:00,
2013-06-07 14:09:00,71.0,41.2,30.03,ENE,68,3.0,3.0,34,0.00,,BKN210,0.00,VWS V14.01,2013-06-07 18:09:00,
2013-06-07 14:15:00,71.0,41.2,30.03,ENE,68,3.0,3.0,34,0.00,,BKN210,0.00,VWS V14.01,2013-06-07 18:15:00,
2013-06-07 14:20:00,71.0,41.2,30.03,ENE,68,3.0,3.0,34,0.00,,BKN210,0.00,VWS V14.01,2013-06-07 18:20:00,
2013-06-07 14:26:00,71.0,41.2,30.03,ENE,68,3.0,3.0,34,0.00,,BKN210,0.00,VWS V14.01,2013-06-07 18:26:00,
2013-06-07 14:30:00,72.7,48.9,29.85,NE,45,1.0,14.0,43,0.00,,SCT033,0.00,VWS V15.00,2013-06-07 18:30:00,
2013-06-07 14:32:00,71.0,41.2,30.03,ENE,68,3.0,3.0,34,0.00,,BKN210,0.00,VWS V14.01,2013-06-07 18:32:00,
2013-06-07 14:37:00,71.0,41.2,30.03,ENE,68,3.0,3.0,34,0.00,,BKN210,0.00,VWS V14.01,2013-06-07 18:37:00,
2013-06-07 14:42:00,71.0,41.2,30.03,ENE,68,3.0,3.0,34,0.00,,BKN210,0.00,VWS V14.01,2013-06-07 18:42:00,
2013-06-07 14:45:00,73.6,51.6,29.84,NNE,22,1.0,8.0,46,0.00,,SCT033,0.00,VWS V15.00,2013-06-07 18:45:00,
2013-06-07 14:48:00,71.0,41.2,30.03,ENE,68,3.0,3.0,34,0.00,,BKN210,0.00,VWS V14.01,2013-06-07 18:48:00,
2013-06-07 14:53:00,71.0,41.2,30.03,ENE,68,3.0,3.0,34,0.00,,BKN210,0.00,VWS V14.01,2013-06-07 18:53:00,
2013-06-07 14:58:00,71.0,41.2,30.03,ENE,68,3.0,3.0,34,0.00,,BKN210,0.00,VWS V14.01,2013-06-07 18:58:00,
2013-06-07 15:00:00,74.0,50.7,29.84,NNE,22,1.0,7.0,44,0.00,,SCT033,0.00,VWS V15.00,2013-06-07 19:00:00,
2013-06-07 15:03:00,71.0,41.2,30.03,ENE,68,3.0,3.0,34,0.00,,BKN210,0.00,VWS V14.01,2013-06-07 19:03:00,
2013-06-07 15:09:00,71.0,41.2,30.03,ENE,68,3.0,3.0,34,0.00,,BKN210,0.00,VWS V14.01,2013-06-07 19:09:00,
2013-06-07 15:14:00,71.0,41.2,30.03,ENE,68,3.0,3.0,34,0.00,,BKN210,0.00,VWS V14.01,2013-06-07 19:14:00,
2013-06-07 15:15:00,74.4,50.5,29.83,North,0,1.0,9.0,43,0.00,,SCT033,0.00,VWS V15.00,2013-06-07 19:15:00,
2013-06-07 15:19:00,71.0,41.2,30.03,ENE,68,3.0,3.0,34,0.00,,BKN210,0.00,VWS V14.01,2013-06-07 19:19:00,
2013-06-07 15:25:00,71.0,41.2,30.03,ENE,68,3.0,3.0,34,0.00,,BKN210,0.00,VWS V14.01,2013-06-07 19:25:00,
2013-06-07 15:30:00,71.0,41.2,30.03,ENE,68,3.0,3.0,34,0.00,,BKN210,0.00,VWS V14.01,2013-06-07 19:30:00,
2013-06-07 15:35:00,71.0,41.2,30.03,ENE,68,3.0,3.0,34,0.00,,BKN210,0.00,VWS V14.01,2013-06-07 19:35:00,
2013-06-07 15:40:00,71.0,41.2,30.03,ENE,68,3.0,3.0,34,0.00,,BKN210,0.00,VWS V14.01,2013-06-07 19:40:00,
2013-06-07 15:45:00,74.8,52.1,29.83,NNE,22,2.0,14.0,45,0.00,,SCT033,0.00,VWS V15.00,2013-06-07 19:45:00,
2013-06-07 15:47:00,71.0,41.2,30.03,ENE,68,3.0,3.0,34,0.00,,BKN210,0.00,VWS V14.01,2013-06-07 19:47:00,
2013-06-07 15:52:00,71.0,41.2,30.03,ENE,68,3.0,3.0,34,0.00,,BKN210,0.00,VWS V14.01,2013-06-07 19:52:00,
2013-06-07 15:57:00,71.0,41.2,30.03,ENE,68,3.0,3.0,34,0.00,,BKN210,0.00,VWS V14.01,2013-06-07 19:57:00,
2013-06-07 16:00:00,75.1,47.8,29.82,NE,45,1.0,8.0,38,0.00,,SCT033,0.00,VWS V15.00,2013-06-07 20:00:00,
2013-06-07 16:02:00,71.0,41.2,30.03,ENE,68,3.0,3.0,34,0.00,,BKN210,0.00,VWS V14.01,2013-06-07 20:02:00,
2013-06-07 16:07:00,71.0,41.2,30.03,ENE,68,3.0,3.0,34,0.00,,BKN210,0.00,VWS V14.01,2013-06-07 20:07:00,
2013-06-07 16:13:00,71.0,41.2,30.03,ENE,68,3.0,3.0,34,0.00,,BKN210,0.00,VWS V14.01,2013-06-07 20:13:00,
2013-06-07 16:15:00,75.8,50.5,29.82,WNW,292,1.0,8.0,41,0.00,,SCT033,0.00,VWS V15.00,2013-06-07 20:15:00,
2013-06-07 16:19:00,71.0,41.2,30.03,ENE,68,3.0,3.0,34,0.00,,BKN210,0.00,VWS V14.01,2013-06-07 20:19:00,
2013-06-07 16:24:00,71.0,41.2,30.03,ENE,68,3.0,3.0,34,0.00,,BKN210,0.00,VWS V14.01,2013-06-07 20:24:00,
2013-06-07 16:29:00,71.0,41.2,30.03,ENE,68,3.0,3.0,34,0.00,,BKN210,0.00,VWS V14.01,2013-06-07 20:29:00,
2013-06-07 16:30:00,74.8,46.8,29.82,NE,45,1.0,8.0,37,0.00,,SCT033,0.00,VWS V15.00,2013-06-07 20:30:00,
2013-06-07 16:35:00,71.0,41.2,30.03,ENE,68,3.0,3.0,34,0.00,,BKN210,0.00,VWS V14.01,2013-06-07 20:35:00,
2013-06-07 16:40:00,71.0,41.2,30.03,ENE,68,3.0,3.0,34,0.00,,BKN210,0.00,VWS V14.01,2013-06-07 20:40:00,
2013-06-07 16:45:00,75.2,48.6,29.81,NE,45,0.0,4.0,39,0.00,,SCT033,0.00,VWS V15.00,2013-06-07 20:45:00,
2013-06-07 16:46:00,71.0,41.2,30.03,ENE,68,3.0,3.0,34,0.00,,BKN210,0.00,VWS V14.01,2013-06-07 20:46:00,
2013-06-07 16:51:00,71.0,41.2,30.03,ENE,68,3.0,3.0,34,0.00,,BKN210,0.00,VWS V14.01,2013-06-07 20:51:00,
2013-06-07 16:56:00,71.0,41.2,30.03,ENE,68,3.0,3.0,34,0.00,,BKN210,0.00,VWS V14.01,2013-06-07 20:56:00,
2013-06-07 17:00:00,74.9,47.6,29.82,ENE,68,1.0,16.0,38,0.00,,SCT033,0.00,VWS V15.00,2013-06-07 21:00:00,
2013-06-07 17:02:00,71.0,41.2,30.03,ENE,68,3.0,3.0,34,0.00,,BKN210,0.00,VWS V14.01,2013-06-07 21:02:00,
2013-06-07 17:07:00,71.0,41.2,30.03,ENE,68,3.0,3.0,34,0.00,,BKN210,0.00,VWS V14.01,2013-06-07 21:07:00,
2013-06-07 17:12:00,71.0,41.2,30.03,ENE,68,3.0,3.0,34,0.00,,BKN210,0.00,VWS V14.01,2013-06-07 21:12:00,
2013-06-07 17:15:00,75.3,49.3,29.81,NNE,22,1.0,8.0,40,0.00,,SCT033,0.00,VWS V15.00,2013-06-07 21:15:00,
2013-06-07 17:18:00,71.0,41.2,30.03,ENE,68,3.0,3.0,34,0.00,,BKN210,0.00,VWS V14.01,2013-06-07 21:18:00,
2013-06-07 17:23:00,71.0,41.2,30.03,ENE,68,3.0,3.0,34,0.00,,BKN210,0.00,VWS V14.01,2013-06-07 21:23:00,
2013-06-07 17:29:00,71.0,41.2,30.03,ENE,68,3.0,3.0,34,0.00,,BKN210,0.00,VWS V14.01,2013-06-07 21:29:00,
2013-06-07 17:30:00,74.4,47.9,29.81,North,0,0.0,6.0,39,0.00,,SCT033,0.00,VWS V15.00,2013-06-07 21:30:00,
2013-06-07 17:34:00,71.0,41.2,30.03,ENE,68,3.0,3.0,34,0.00,,BKN210,0.00,VWS V14.01,2013-06-07 21:34:00,
2013-06-07 17:40:00,71.0,41.2,30.03,ENE,68,3.0,3.0,34,0.00,,BKN210,0.00,VWS V14.01,2013-06-07 21:40:00,
2013-06-07 17:45:00,71.0,41.2,30.03,ENE,68,3.0,3.0,34,0.00,,BKN210,0.00,VWS V14.01,2013-06-07 21:45:00,
2013-06-07 17:51:00,71.0,41.2,30.03,ENE,68,3.0,3.0,34,0.00,,BKN210,0.00,VWS V14.01,2013-06-07 21:51:00,
2013-06-07 17:56:00,71.0,41.2,30.03,ENE,68,3.0,3.0,34,0.00,,BKN210,0.00,VWS V14.01,2013-06-07 21:56:00,
2013-06-07 18:00:00,74.2,48.3,29.81,North,0,1.0,5.0,40,0.00,,SCT033,0.00,VWS V15.00,2013-06-07 22:00:00,
2013-06-07 18:01:00,71.0,41.2,30.03,ENE,68,3.0,3.0,34,0.00,,BKN210,0.00,VWS V14.01,2013-06-07 22:01:00,
2013-06-07 18:06:00,71.0,41.2,30.03,ENE,68,3.0,3.0,34,0.00,,BKN210,0.00,VWS V14.01,2013-06-07 22:06:00,
2013-06-07 18:11:00,71.0,41.2,30.03,ENE,68,3.0,3.0,34,0.00,,BKN210,0.00,VWS V14.01,2013-06-07 22:11:00,
2013-06-07 18:15:00,74.6,49.4,29.81,North,0,1.0,9.0,41,0.00,,SCT033,0.00,VWS V15.00,2013-06-07 22:15:00,
2013-06-07 18:16:00,71.0,41.2,30.03,ENE,68,3.0,3.0,34,0.00,,BKN210,0.00,VWS V14.01,2013-06-07 22:16:00,
2013-06-07 18:22:00,71.0,41.2,30.03,ENE,68,3.0,3.0,34,0.00,,BKN210,0.00,VWS V14.01,2013-06-07 22:22:00,
2013-06-07 18:27:00,71.0,41.2,30.03,ENE,68,3.0,3.0,34,0.00,,BKN210,0.00,VWS V14.01,2013-06-07 22:27:00,
2013-06-07 18:30:00,74.3,47.8,29.80,North,0,2.0,8.0,39,0.00,,SCT033,0.00,VWS V15.00,2013-06-07 22:30:00,
2013-06-07 18:32:00,71.0,41.2,30.03,ENE,68,3.0,3.0,34,0.00,,BKN210,0.00,VWS V14.01,2013-06-07 22:32:00,
2013-06-07 18:38:00,71.0,41.2,30.03,ENE,68,3.0,3.0,34,0.00,,BKN210,0.00,VWS V14.01,2013-06-07 22:38:00,
2013-06-07 18:44:00,71.0,41.2,30.03,ENE,68,3.0,3.0,34,0.00,,BKN210,0.00,VWS V14.01,2013-06-07 22:44:00,
2013-06-07 18:45:00,74.0,48.2,29.80,North,0,1.0,5.0,40,0.00,,SCT033,0.00,VWS V15.00,2013-06-07 22:45:00,
2013-06-07 18:49:00,71.0,41.2,30.03,ENE,68,3.0,3.0,34,0.00,,BKN210,0.00,VWS V14.01,2013-06-07 22:49:00,
2013-06-07 18:55:00,71.0,41.2,30.03,ENE,68,3.0,3.0,34,0.00,,BKN210,0.00,VWS V14.01,2013-06-07 22:55:00,
2013-06-07 19:00:00,73.6,47.1,29.80,North,0,0.0,6.0,39,0.00,,SCT033,0.00,VWS V15.00,2013-06-07 23:00:00,
2013-06-07 19:02:00,71.0,41.2,30.03,ENE,68,3.0,3.0,34,0.00,,BKN210,0.00,VWS V14.01,2013-06-07 23:02:00,
2013-06-07 19:07:00,71.0,41.2,30.03,ENE,68,3.0,3.0,34,0.00,,BKN210,0.00,VWS V14.01,2013-06-07 23:07:00,
2013-06-07 19:13:00,71.0,41.2,30.03,ENE,68,3.0,3.0,34,0.00,,BKN210,0.00,VWS V14.01,2013-06-07 23:13:00,
2013-06-07 19:15:00,73.2,47.5,29.80,North,0,0.0,2.0,40,0.00,,SCT033,0.00,VWS V15.00,2013-06-07 23:15:00,
2013-06-07 19:18:00,71.0,41.2,30.03,ENE,68,3.0,3.0,34,0.00,,BKN210,0.00,VWS V14.01,2013-06-07 23:18:00,
2013-06-07 19:24:00,71.0,41.2,30.03,ENE,68,3.0,3.0,34,0.00,,BKN210,0.00,VWS V14.01,2013-06-07 23:24:00,
2013-06-07 19:29:00,71.0,41.2,30.03,ENE,68,3.0,3.0,34,0.00,,BKN210,0.00,VWS V14.01,2013-06-07 23:29:00,
2013-06-07 19:30:00,72.8,49.0,29.80,North,0,0.0,2.0,43,0.00,,SCT033,0.00,VWS V15.00,2013-06-07 23:30:00,
2013-06-07 19:34:00,71.0,41.2,30.03,ENE,68,3.0,3.0,34,0.00,,BKN210,0.00,VWS V14.01,2013-06-07 23:34:00,
2013-06-07 19:39:00,71.0,41.2,30.03,ENE,68,3.0,3.0,34,0.00,,BKN210,0.00,VWS V14.01,2013-06-07 23:39:00,
2013-06-07 19:45:00,72.4,49.9,29.80,North,0,0.0,6.0,45,0.00,,SCT033,0.00,VWS V15.00,2013-06-07 23:45:00,
2013-06-07 19:46:00,71.0,41.2,30.03,ENE,68,3.0,3.0,34,0.00,,BKN210,0.00,VWS V14.01,2013-06-07 23:46:00,
2013-06-07 19:51:00,71.0,41.2,30.03,ENE,68,3.0,3.0,34,0.00,,BKN210,0.00,VWS V14.01,2013-06-07 23:51:00,
2013-06-07 19:56:00,71.0,41.2,30.03,ENE,68,3.0,3.0,34,0.00,,BKN210,0.00,VWS V14.01,2013-06-07 23:56:00,
2013-06-07 20:00:00,72.0,48.9,29.81,North,0,0.0,3.0,44,0.00,,SCT033,0.00,VWS V15.00,2013-06-08 00:00:00,
2013-06-07 20:01:00,71.0,41.2,30.03,ENE,68,3.0,3.0,34,0.00,,BKN210,0.00,VWS V14.01,2013-06-08 00:01:00,
2013-06-07 20:07:00,71.0,41.2,30.03,ENE,68,3.0,3.0,34,0.00,,BKN210,0.00,VWS V14.01,2013-06-08 00:07:00,
2013-06-07 20:12:00,71.0,41.2,30.03,ENE,68,3.0,3.0,34,0.00,,BKN210,0.00,VWS V14.01,2013-06-08 00:12:00,
2013-06-07 20:15:00,71.9,50.6,29.81,North,0,0.0,1.0,47,0.00,,SCT033,0.00,VWS V15.00,2013-06-08 00:15:00,
2013-06-07 20:17:00,71.0,41.2,30.03,ENE,68,3.0,3.0,34,0.00,,BKN210,0.00,VWS V14.01,2013-06-08 00:17:00,
2013-06-07 20:23:00,71.0,41.2,30.03,ENE,68,3.0,3.0,34,0.00,,BKN210,0.00,VWS V14.01,2013-06-08 00:23:00,
2013-06-07 20:28:00,71.0,41.2,30.03,ENE,68,3.0,3.0,34,0.00,,BKN210,0.00,VWS V14.01,2013-06-08 00:28:00,
2013-06-07 20:30:00,71.4,50.7,29.82,NE,45,0.0,3.0,48,0.00,,SCT033,0.00,VWS V15.00,2013-06-08 00:30:00,
2013-06-07 20:33:00,71.0,41.2,30.03,ENE,68,3.0,3.0,34,0.00,,BKN210,0.00,VWS V14.01,2013-06-08 00:33:00,
2013-06-07 20:39:00,71.0,41.2,30.03,ENE,68,3.0,3.0,34,0.00,,BKN210,0.00,VWS V14.01,2013-06-08 00:39:00,
2013-06-07 20:44:00,71.0,41.2,30.03,ENE,68,3.0,3.0,34,0.00,,BKN210,0.00,VWS V14.01,2013-06-08 00:44:00,
2013-06-07 20:45:00,70.9,50.2,29.82,NE,45,0.0,1.0,48,0.00,,SCT033,0.00,VWS V15.00,2013-06-08 00:45:00,
2013-06-07 20:49:00,71.0,41.2,30.03,ENE,68,3.0,3.0,34,0.00,,BKN210,0.00,VWS V14.01,2013-06-08 00:49:00,
2013-06-07 20:55:00,71.0,41.2,30.03,ENE,68,3.0,3.0,34,0.00,,BKN210,0.00,VWS V14.01,2013-06-08 00:55:00,
2013-06-07 21:00:00,71.0,41.2,30.03,ENE,68,3.0,3.0,34,0.00,,BKN210,0.00,VWS V14.01,2013-06-08 01:00:00,
2013-06-07 21:06:00,71.0,41.2,30.03,ENE,68,3.0,3.0,34,0.00,,BKN210,0.00,VWS V14.01,2013-06-08 01:06:00,
2013-06-07 21:12:00,71.0,41.2,30.03,ENE,68,3.0,3.0,34,0.00,,BKN210,0.00,VWS V14.01,2013-06-08 01:12:00,
2013-06-07 21:15:00,68.9,51.1,29.82,ENE,68,1.0,7.0,53,0.00,,SCT033,0.00,VWS V15.00,2013-06-08 01:15:00,
2013-06-07 21:17:00,71.0,41.2,30.03,ENE,68,3.0,3.0,34,0.00,,BKN210,0.00,VWS V14.01,2013-06-08 01:17:00,
2013-06-07 21:22:00,71.0,41.2,30.03,ENE,68,3.0,3.0,34,0.00,,BKN210,0.00,VWS V14.01,2013-06-08 01:22:00,
2013-06-07 21:29:00,71.0,41.2,30.03,ENE,68,3.0,3.0,34,0.00,,BKN210,0.00,VWS V14.01,2013-06-08 01:29:00,
2013-06-07 21:30:00,68.1,51.3,29.83,ENE,68,0.0,3.0,55,0.00,,SCT033,0.00,VWS V15.00,2013-06-08 01:30:00,
2013-06-07 21:34:00,71.0,41.2,30.03,ENE,68,3.0,3.0,34,0.00,,BKN210,0.00,VWS V14.01,2013-06-08 01:34:00,
2013-06-07 21:39:00,71.0,41.2,30.03,ENE,68,3.0,3.0,34,0.00,,BKN210,0.00,VWS V14.01,2013-06-08 01:39:00,
2013-06-07 21:45:00,71.0,41.2,30.03,ENE,68,3.0,3.0,34,0.00,,BKN210,0.00,VWS V14.01,2013-06-08 01:45:00,
2013-06-07 21:50:00,71.0,41.2,30.03,ENE,68,3.0,3.0,34,0.00,,BKN210,0.00,VWS V14.01,2013-06-08 01:50:00,
2013-06-07 21:56:00,71.0,41.2,30.03,ENE,68,3.0,3.0,34,0.00,,BKN210,0.00,VWS V14.01,2013-06-08 01:56:00,
2013-06-07 22:00:00,66.4,51.7,29.84,ENE,68,0.0,5.0,59,0.00,,SCT033,0.00,VWS V15.00,2013-06-08 02:00:00,
2013-06-07 22:01:00,71.0,41.2,30.03,ENE,68,3.0,3.0,34,0.00,,BKN210,0.00,VWS V14.01,2013-06-08 02:01:00,
2013-06-07 22:06:00,71.0,41.2,30.03,ENE,68,3.0,3.0,34,0.00,,BKN210,0.00,VWS V14.01,2013-06-08 02:06:00,
2013-06-07 22:12:00,71.0,41.2,30.03,ENE,68,3.0,3.0,34,0.00,,BKN210,0.00,VWS V14.01,2013-06-08 02:12:00,
2013-06-07 22:15:00,65.6,51.8,29.84,ENE,68,0.0,4.0,61,0.00,,SCT033,0.00,VWS V15.00,2013-06-08 02:15:00,
2013-06-07 22:17:00,71.0,41.2,30.03,ENE,68,3.0,3.0,34,0.00,,BKN210,0.00,VWS V14.01,2013-06-08 02:17:00,
2013-06-07 22:22:00,71.0,41.2,30.03,ENE,68,3.0,3.0,34,0.00,,BKN210,0.00,VWS V14.01,2013-06-08 02:22:00,
2013-06-07 22:27:00,71.0,41.2,30.03,ENE,68,3.0,3.0,34,0.00,,BKN210,0.00,VWS V14.01,2013-06-08 02:27:00,
2013-06-07 22:30:00,65.0,51.7,29.85,ENE,68,0.0,2.0,62,0.00,,SCT033,0.00,VWS V15.00,2013-06-08 02:30:00,
2013-06-07 22:32:00,71.0,41.2,30.03,ENE,68,3.0,3.0,34,0.00,,BKN210,0.00,VWS V14.01,2013-06-08 02:32:00,
2013-06-07 22:38:00,71.0,41.2,30.03,ENE,68,3.0,3.0,34,0.00,,BKN210,0.00,VWS V14.01,2013-06-08 02:38:00,
2013-06-07 22:43:00,71.0,41.2,30.03,ENE,68,3.0,3.0,34,0.00,,BKN210,0.00,VWS V14.01,2013-06-08 02:43:00,
2013-06-07 22:45:00,64.5,51.6,29.86,ENE,68,0.0,4.0,63,0.00,,SCT033,0.00,VWS V15.00,2013-06-08 02:45:00,
2013-06-07 22:48:00,71.0,41.2,30.03,ENE,68,3.0,3.0,34,0.00,,BKN210,0.00,VWS V14.01,2013-06-08 02:48:00,
2013-06-07 22:53:00,71.0,41.2,30.03,ENE,68,3.0,3.0,34,0.00,,BKN210,0.00,VWS V14.01,2013-06-08 02:53:00,
2013-06-07 22:59:00,71.0,41.2,30.03,ENE,68,3.0,3.0,34,0.00,,BKN210,0.00,VWS V14.01,2013-06-08 02:59:00,
2013-06-07 23:00:00,64.3,51.9,29.86,ENE,68,1.0,8.0,64,0.00,,SCT033,0.00,VWS V15.00,2013-06-08 03:00:00,
2013-06-07 23:04:00,71.0,41.2,30.03,ENE,68,3.0,3.0,34,0.00,,BKN210,0.00,VWS V14.01,2013-06-08 03:04:00,
2013-06-07 23:10:00,71.0,41.2,30.03,ENE,68,3.0,3.0,34,0.00,,BKN210,0.00,VWS V14.01,2013-06-08 03:10:00,
2013-06-07 23:15:00,71.0,41.2,30.03,ENE,68,3.0,3.0,34,0.00,,BKN210,0.00,VWS V14.01,2013-06-08 03:15:00,
2013-06-07 23:20:00,71.0,41.2,30.03,ENE,68,3.0,3.0,34,0.00,,BKN210,0.00,VWS V14.01,2013-06-08 03:20:00,
2013-06-07 23:26:00,71.0,41.2,30.03,ENE,68,3.0,3.0,34,0.00,,BKN210,0.00,VWS V14.01,2013-06-08 03:26:00,
2013-06-07 23:30:00,63.6,51.6,29.86,ENE,68,1.0,10.0,65,0.00,,SCT033,0.00,VWS V15.00,2013-06-08 03:30:00,
2013-06-07 23:31:00,71.0,41.2,30.03,ENE,68,3.0,3.0,34,0.00,,BKN210,0.00,VWS V14.01,2013-06-08 03:31:00,
2013-06-07 23:37:00,71.0,41.2,30.03,ENE,68,3.0,3.0,34,0.00,,BKN210,0.00,VWS V14.01,2013-06-08 03:37:00,
2013-06-07 23:42:00,71.0,41.2,30.03,ENE,68,3.0,3.0,34,0.00,,BKN210,0.00,VWS V14.01,2013-06-08 03:42:00,
2013-06-07 23:45:00,63.3,51.3,29.86,ENE,68,1.0,8.0,65,0.00,,SCT033,0.00,VWS V15.00,2013-06-08 03:45:00,
2013-06-07 23:47:00,71.0,41.2,30.03,ENE,68,3.0,3.0,34,0.00,,BKN210,0.00,VWS V14.01,2013-06-08 03:47:00,
2013-06-07 23:52:00,71.0,41.2,30.03,ENE,68,3.0,3.0,34,0.00,,BKN210,0.00,VWS V14.01,2013-06-08 03:52:00,
2013-06-07 23:57:00,71.0,41.2,30.03,ENE,68,3.0,3.0,34,0.00,,BKN210,0.00,VWS V14.01,2013-06-08 03:57:00,